Time,TemperatureF,DewpointF,PressureIn,WindDirection,WindDirectionDegrees,WindSpeedMPH,WindSpeedGustMPH,Humidity,HourlyPrecipIn,Conditions,Clouds,dailyrainin,SoftwareType,DateUTC
2013-01-20 00:04:00,12.6,1.6,29.89,NNW,338,8.9,13.6,61,0.00,,,0.00,WUHU216HW,2013-01-20 06:04:00,
2013-01-20 00:09:00,12.4,1.1,29.89,North,0,11.9,16.3,60,0.00,,,0.00,WUHU216HW,2013-01-20 06:09:00,
2013-01-20 00:14:00,12.1,0.7,29.90,NW,315,14.3,16.3,60,0.00,,,0.00,WUHU216HW,2013-01-20 06:14:00,
2013-01-20 00:19:00,11.9,0.5,29.91,WSW,248,14.1,15.7,60,0.00,,,0.00,WUHU216HW,2013-01-20 06:19:00,
2013-01-20 00:24:00,11.7,0.5,29.91,WNW,293,11.4,15.7,60,0.00,,,0.00,WUHU216HW,2013-01-20 06:24:00,
2013-01-20 00:29:00,11.7,0.5,29.92,NW,315,10.1,15.4,60,0.00,,,0.00,WUHU216HW,2013-01-20 06:29:00,
2013-01-20 00:34:00,11.3,0.1,29.92,West,270,11.4,18.1,60,0.00,,,0.00,WUHU216HW,2013-01-20 06:34:00,
2013-01-20 00:39:00,11.2,-0.1,29.93,NNW,338,10.1,18.1,60,0.00,,,0.00,WUHU216HW,2013-01-20 06:39:00,
2013-01-20 00:44:00,11.2,-0.1,29.93,WNW,293,12.8,17.9,60,0.00,,,0.00,WUHU216HW,2013-01-20 06:44:00,
2013-01-20 00:49:00,10.8,-0.3,29.93,West,270,12.1,17.2,60,0.00,,,0.00,WUHU216HW,2013-01-20 06:49:00,
2013-01-20 00:54:00,10.8,-0.1,29.94,NW,315,10.5,17.2,61,0.00,,,0.00,WUHU216HW,2013-01-20 06:54:00,
2013-01-20 00:59:00,10.4,-0.1,29.94,NW,315,12.5,14.3,62,0.00,,,0.00,WUHU216HW,2013-01-20 06:59:00,
2013-01-20 01:04:00,10.3,0.7,29.95,NNW,338,10.7,17.2,65,0.00,,,0.00,WUHU216HW,2013-01-20 07:04:00,
2013-01-20 01:09:00,10.1,0.5,29.95,NNE,23,11.2,22.6,65,0.00,,,0.00,WUHU216HW,2013-01-20 07:09:00,
2013-01-20 01:14:00,9.7,-0.1,29.96,NW,315,11.2,22.6,64,0.00,,,0.00,WUHU216HW,2013-01-20 07:14:00,
2013-01-20 01:19:00,9.7,-0.4,29.96,NNW,338,8.7,14.3,63,0.00,,,0.00,WUHU216HW,2013-01-20 07:19:00,
2013-01-20 01:24:00,9.7,-0.1,29.96,NNW,338,11.9,12.5,64,0.00,,,0.00,WUHU216HW,2013-01-20 07:24:00,
2013-01-20 01:29:00,9.7,-0.1,29.97,WNW,293,14.5,14.5,64,0.00,,,0.00,WUHU216HW,2013-01-20 07:29:00,
2013-01-20 01:34:00,9.4,1.2,29.97,NNW,338,10.5,14.5,69,0.00,,,0.00,WUHU216HW,2013-01-20 07:34:00,
2013-01-20 01:39:00,9.2,2.0,29.98,NW,315,11.0,13.2,72,0.00,,,0.00,WUHU216HW,2013-01-20 07:39:00,
2013-01-20 01:44:00,9.0,2.1,29.98,WSW,248,10.3,14.1,73,0.00,,,0.00,WUHU216HW,2013-01-20 07:44:00,
2013-01-20 01:49:00,8.8,2.3,29.98,West,270,8.9,16.3,74,0.00,,,0.00,WUHU216HW,2013-01-20 07:49:00,
2013-01-20 01:54:00,9.0,1.8,29.99,West,270,9.2,16.3,72,0.00,,,0.00,WUHU216HW,2013-01-20 07:54:00,
2013-01-20 01:59:00,9.0,2.3,29.99,NNW,338,10.5,13.2,74,0.00,,,0.00,WUHU216HW,2013-01-20 07:59:00,
2013-01-20 02:04:00,8.6,2.1,29.99,North,0,7.6,13.2,74,0.00,,,0.00,WUHU216HW,2013-01-20 08:04:00,
2013-01-20 02:09:00,8.3,1.5,29.99,NW,315,6.3,10.5,73,0.00,,,0.00,WUHU216HW,2013-01-20 08:09:00,
2013-01-20 02:14:00,8.3,1.7,30.00,NW,315,6.5,9.6,74,0.00,,,0.00,WUHU216HW,2013-01-20 08:14:00,
2013-01-20 02:19:00,8.3,1.5,30.01,West,270,8.3,9.6,73,0.00,,,0.00,WUHU216HW,2013-01-20 08:19:00,
2013-01-20 02:24:00,8.1,0.4,30.01,NNW,338,9.6,12.3,70,0.00,,,0.00,WUHU216HW,2013-01-20 08:24:00,
2013-01-20 02:29:00,8.1,0.4,30.01,NW,315,12.1,12.3,70,0.00,,,0.00,WUHU216HW,2013-01-20 08:29:00,
2013-01-20 02:34:00,7.9,0.2,30.02,WNW,293,8.3,12.1,70,0.00,,,0.00,WUHU216HW,2013-01-20 08:34:00,
2013-01-20 02:39:00,7.9,-0.2,30.02,NW,315,7.2,13.0,69,0.00,,,0.00,WUHU216HW,2013-01-20 08:39:00,
2013-01-20 02:44:00,7.7,-0.6,30.03,North,0,6.3,13.0,68,0.00,,,0.00,WUHU216HW,2013-01-20 08:44:00,
2013-01-20 02:49:00,7.7,-1.0,30.03,NNW,338,8.7,12.5,67,0.00,,,0.00,WUHU216HW,2013-01-20 08:49:00,
2013-01-20 02:54:00,7.6,-1.2,30.03,NW,315,7.6,11.4,67,0.00,,,0.00,WUHU216HW,2013-01-20 08:54:00,
2013-01-20 02:59:00,7.6,-1.2,30.04,West,270,5.8,11.4,67,0.00,,,0.00,WUHU216HW,2013-01-20 08:59:00,
2013-01-20 03:04:00,7.6,-1.2,30.04,North,0,6.9,12.5,67,0.00,,,0.00,WUHU216HW,2013-01-20 09:04:00,
2013-01-20 03:09:00,7.4,-1.7,30.05,NW,315,4.9,12.5,66,0.00,,,0.00,WUHU216HW,2013-01-20 09:09:00,
2013-01-20 03:14:00,7.4,-1.7,30.05,WNW,293,12.3,12.3,66,0.00,,,0.00,WUHU216HW,2013-01-20 09:14:00,
2013-01-20 03:19:00,7.4,-1.7,30.05,WNW,293,8.3,12.3,66,0.00,,,0.00,WUHU216HW,2013-01-20 09:19:00,
2013-01-20 03:24:00,7.2,-1.9,30.05,WNW,293,7.8,11.0,66,0.00,,,0.00,WUHU216HW,2013-01-20 09:24:00,
2013-01-20 03:29:00,7.2,-1.9,30.06,NNW,338,4.0,10.5,66,0.00,,,0.00,WUHU216HW,2013-01-20 09:29:00,
2013-01-20 03:34:00,7.2,-1.9,30.06,WNW,293,4.0,12.1,66,0.00,,,0.00,WUHU216HW,2013-01-20 09:34:00,
2013-01-20 03:39:00,7.2,-1.9,30.06,West,270,8.9,12.1,66,0.00,,,0.00,WUHU216HW,2013-01-20 09:39:00,
2013-01-20 03:44:00,7.0,-2.0,30.06,WSW,248,8.1,8.9,66,0.00,,,0.00,WUHU216HW,2013-01-20 09:44:00,
2013-01-20 03:49:00,7.0,-2.0,30.07,SW,225,5.4,8.7,66,0.00,,,0.00,WUHU216HW,2013-01-20 09:49:00,
2013-01-20 03:54:00,6.8,-2.1,30.07,West,270,7.8,10.1,66,0.00,,,0.00,WUHU216HW,2013-01-20 09:54:00,
2013-01-20 03:59:00,6.8,-1.9,30.07,WNW,293,4.7,10.5,67,0.00,,,0.00,WUHU216HW,2013-01-20 09:59:00,
2013-01-20 04:04:00,6.8,-1.9,30.07,NW,315,8.3,10.5,67,0.00,,,0.00,WUHU216HW,2013-01-20 10:04:00,
2013-01-20 04:09:00,6.7,-2.1,30.08,WNW,293,12.8,12.8,67,0.00,,,0.00,WUHU216HW,2013-01-20 10:09:00,
2013-01-20 04:14:00,6.7,-2.1,30.08,NW,315,6.7,12.8,67,0.00,,,0.00,WUHU216HW,2013-01-20 10:14:00,
2013-01-20 04:19:00,6.7,-2.1,30.09,SW,225,8.5,12.5,67,0.00,,,0.00,WUHU216HW,2013-01-20 10:19:00,
2013-01-20 04:24:00,6.7,-1.7,30.09,West,270,4.7,11.2,68,0.00,,,0.00,WUHU216HW,2013-01-20 10:24:00,
2013-01-20 04:29:00,6.5,-1.9,30.09,West,270,8.7,11.9,68,0.00,,,0.00,WUHU216HW,2013-01-20 10:29:00,
2013-01-20 04:34:00,6.5,-1.9,30.09,NNW,338,6.9,11.9,68,0.00,,,0.00,WUHU216HW,2013-01-20 10:34:00,
2013-01-20 04:39:00,6.5,-1.9,30.10,North,0,5.4,12.5,68,0.00,,,0.00,WUHU216HW,2013-01-20 10:39:00,
2013-01-20 04:44:00,6.3,-2.1,30.10,WSW,248,8.3,12.5,68,0.00,,,0.00,WUHU216HW,2013-01-20 10:44:00,
2013-01-20 04:49:00,6.3,-2.1,30.10,WNW,293,9.8,11.9,68,0.00,,,0.00,WUHU216HW,2013-01-20 10:49:00,
2013-01-20 04:54:00,6.1,-2.2,30.10,West,270,7.6,12.3,68,0.00,,,0.00,WUHU216HW,2013-01-20 10:54:00,
2013-01-20 04:59:00,6.1,-2.2,30.10,NNW,338,7.4,13.2,68,0.00,,,0.00,WUHU216HW,2013-01-20 10:59:00,
2013-01-20 05:04:00,6.1,-2.2,30.11,West,270,10.7,13.2,68,0.00,,,0.00,WUHU216HW,2013-01-20 11:04:00,
2013-01-20 05:09:00,6.1,-2.2,30.11,WSW,248,6.0,10.7,68,0.00,,,0.00,WUHU216HW,2013-01-20 11:09:00,
2013-01-20 05:14:00,6.1,-2.0,30.12,WNW,293,6.3,12.1,69,0.00,,,0.00,WUHU216HW,2013-01-20 11:14:00,
2013-01-20 05:19:00,6.1,-2.0,30.12,NW,315,6.0,12.1,69,0.00,,,0.00,WUHU216HW,2013-01-20 11:19:00,
2013-01-20 05:24:00,5.9,-1.8,30.12,WNW,293,8.5,14.1,70,0.00,,,0.00,WUHU216HW,2013-01-20 11:24:00,
2013-01-20 05:29:00,5.9,-2.2,30.12,West,270,4.3,14.1,69,0.00,,,0.00,WUHU216HW,2013-01-20 11:29:00,
2013-01-20 05:34:00,5.8,-2.0,30.13,WNW,293,4.9,11.4,70,0.00,,,0.00,WUHU216HW,2013-01-20 11:34:00,
2013-01-20 05:39:00,5.8,-2.0,30.12,WNW,293,9.8,11.4,70,0.00,,,0.00,WUHU216HW,2013-01-20 11:39:00,
2013-01-20 05:44:00,5.8,-2.0,30.13,West,270,8.5,9.8,70,0.00,,,0.00,WUHU216HW,2013-01-20 11:44:00,
2013-01-20 05:49:00,5.6,-2.2,30.13,NW,315,10.3,11.6,70,0.00,,,0.00,WUHU216HW,2013-01-20 11:49:00,
2013-01-20 05:54:00,5.6,-2.2,30.14,NW,315,6.9,11.6,70,0.00,,,0.00,WUHU216HW,2013-01-20 11:54:00,
2013-01-20 05:59:00,5.6,-2.2,30.14,West,270,10.1,11.2,70,0.00,,,0.00,WUHU216HW,2013-01-20 11:59:00,
2013-01-20 06:04:00,5.4,-2.3,30.14,North,0,8.5,15.7,70,0.00,,,0.00,WUHU216HW,2013-01-20 12:04:00,
2013-01-20 06:09:00,5.4,-2.3,30.14,NW,315,11.4,15.7,70,0.00,,,0.00,WUHU216HW,2013-01-20 12:09:00,
2013-01-20 06:14:00,5.4,-2.3,30.14,NW,315,17.9,17.9,70,0.00,,,0.00,WUHU216HW,2013-01-20 12:14:00,
2013-01-20 06:19:00,5.4,-2.3,30.15,NW,315,11.4,17.9,70,0.00,,,0.00,WUHU216HW,2013-01-20 12:19:00,
2013-01-20 06:24:00,5.4,-2.3,30.15,West,270,10.7,11.4,70,0.00,,,0.00,WUHU216HW,2013-01-20 12:24:00,
2013-01-20 06:29:00,5.2,-2.5,30.15,WNW,293,10.7,10.7,70,0.00,,,0.00,WUHU216HW,2013-01-20 12:29:00,
2013-01-20 06:34:00,5.2,-2.2,30.15,NW,315,6.3,10.7,71,0.00,,,0.00,WUHU216HW,2013-01-20 12:34:00,
2013-01-20 06:39:00,5.2,-2.5,30.15,NNW,338,4.3,10.3,70,0.00,,,0.00,WUHU216HW,2013-01-20 12:39:00,
2013-01-20 06:44:00,5.2,-2.2,30.16,NW,315,2.5,10.3,71,0.00,,,0.00,WUHU216HW,2013-01-20 12:44:00,
2013-01-20 06:49:00,5.0,-2.4,30.16,NW,315,11.0,11.0,71,0.00,,,0.00,WUHU216HW,2013-01-20 12:49:00,
2013-01-20 06:54:00,5.0,-2.4,30.15,West,270,6.7,11.4,71,0.00,,,0.00,WUHU216HW,2013-01-20 12:54:00,
2013-01-20 06:59:00,5.0,-2.4,30.15,WSW,248,3.8,11.4,71,0.00,,,0.00,WUHU216HW,2013-01-20 12:59:00,
2013-01-20 07:04:00,4.9,-2.6,30.16,NNW,338,6.5,7.8,71,0.00,,,0.00,WUHU216HW,2013-01-20 13:04:00,
2013-01-20 07:09:00,4.9,-2.6,30.16,West,270,5.4,8.5,71,0.00,,,0.00,WUHU216HW,2013-01-20 13:09:00,
2013-01-20 07:14:00,4.9,-2.6,30.17,WNW,293,5.8,10.5,71,0.00,,,0.00,WUHU216HW,2013-01-20 13:14:00,
2013-01-20 07:19:00,4.7,-2.7,30.17,NNW,338,4.5,10.5,71,0.00,,,0.00,WUHU216HW,2013-01-20 13:19:00,
2013-01-20 07:24:00,4.9,-2.6,30.17,West,270,5.4,8.3,71,0.00,,,0.00,WUHU216HW,2013-01-20 13:24:00,
2013-01-20 07:29:00,4.7,-2.7,30.17,NNW,338,5.4,9.6,71,0.00,,,0.00,WUHU216HW,2013-01-20 13:29:00,
2013-01-20 07:34:00,4.9,-2.6,30.17,NW,315,4.0,9.6,71,0.00,,,0.00,WUHU216HW,2013-01-20 13:34:00,
2013-01-20 07:39:00,4.9,-2.2,30.17,NNW,338,4.0,8.7,72,0.00,,,0.00,WUHU216HW,2013-01-20 13:39:00,
2013-01-20 07:44:00,4.7,-2.7,30.18,NW,315,3.1,9.6,71,0.00,,,0.00,WUHU216HW,2013-01-20 13:44:00,
2013-01-20 07:49:00,4.7,-2.7,30.19,NNW,338,6.3,9.6,71,0.00,,,0.00,WUHU216HW,2013-01-20 13:49:00,
2013-01-20 07:54:00,5.0,-2.4,30.19,NW,315,8.1,9.8,71,0.00,,,0.00,WUHU216HW,2013-01-20 13:54:00,
2013-01-20 07:59:00,5.2,-2.2,30.20,West,270,3.4,9.8,71,0.00,,,0.00,WUHU216HW,2013-01-20 13:59:00,
2013-01-20 08:04:00,5.4,-2.3,30.20,NNW,338,6.3,8.1,70,0.00,,,0.00,WUHU216HW,2013-01-20 14:04:00,
2013-01-20 08:09:00,5.4,-2.3,30.20,NNW,338,6.9,8.7,70,0.00,,,0.00,WUHU216HW,2013-01-20 14:09:00,
2013-01-20 08:14:00,5.8,-2.0,30.20,NW,315,3.8,8.7,70,0.00,,,0.00,WUHU216HW,2013-01-20 14:14:00,
2013-01-20 08:19:00,5.9,-1.8,30.21,WSW,248,7.6,9.2,70,0.00,,,0.00,WUHU216HW,2013-01-20 14:19:00,
2013-01-20 08:24:00,6.1,-1.6,30.21,West,270,12.3,12.3,70,0.00,,,0.00,WUHU216HW,2013-01-20 14:24:00,
2013-01-20 08:29:00,6.1,-2.0,30.21,WSW,248,9.6,12.3,69,0.00,,,0.00,WUHU216HW,2013-01-20 14:29:00,
2013-01-20 08:34:00,6.3,-1.8,30.20,WSW,248,8.9,9.6,69,0.00,,,0.00,WUHU216HW,2013-01-20 14:34:00,
2013-01-20 08:39:00,6.5,-1.9,30.20,NNE,23,4.5,10.7,68,0.00,,,0.00,WUHU216HW,2013-01-20 14:39:00,
2013-01-20 08:44:00,6.7,-1.7,30.21,NW,315,6.3,11.4,68,0.00,,,0.00,WUHU216HW,2013-01-20 14:44:00,
2013-01-20 08:49:00,7.2,-1.2,30.22,North,0,8.5,11.4,68,0.00,,,0.00,WUHU216HW,2013-01-20 14:49:00,
2013-01-20 08:54:00,7.0,-2.0,30.22,NW,315,4.0,8.9,66,0.00,,,0.00,WUHU216HW,2013-01-20 14:54:00,
2013-01-20 08:59:00,6.8,-2.1,30.22,NNW,338,6.9,9.2,66,0.00,,,0.00,WUHU216HW,2013-01-20 14:59:00,
2013-01-20 09:04:00,6.8,-2.1,30.22,NNW,338,6.0,9.2,66,0.00,,,0.00,WUHU216HW,2013-01-20 15:04:00,
2013-01-20 09:09:00,7.0,-2.0,30.22,NW,315,7.2,9.2,66,0.00,,,0.00,WUHU216HW,2013-01-20 15:09:00,
2013-01-20 09:14:00,6.5,-2.2,30.22,NW,315,5.4,9.2,67,0.00,,,0.00,WUHU216HW,2013-01-20 15:14:00,
2013-01-20 09:19:00,6.8,-1.5,30.22,WNW,293,6.5,9.2,68,0.00,,,0.00,WUHU216HW,2013-01-20 15:19:00,
2013-01-20 09:24:00,7.0,-1.3,30.22,West,270,7.6,9.2,68,0.00,,,0.00,WUHU216HW,2013-01-20 15:24:00,
2013-01-20 09:29:00,7.0,-1.3,30.22,NNW,338,5.4,7.8,68,0.00,,,0.00,WUHU216HW,2013-01-20 15:29:00,
2013-01-20 09:34:00,7.6,-0.8,30.22,West,270,6.0,7.8,68,0.00,,,0.00,WUHU216HW,2013-01-20 15:34:00,
2013-01-20 09:39:00,7.7,-1.3,30.22,NNW,338,6.7,8.5,66,0.00,,,0.00,WUHU216HW,2013-01-20 15:39:00,
2013-01-20 09:44:00,7.6,-1.5,30.22,NNW,338,7.2,8.5,66,0.00,,,0.00,WUHU216HW,2013-01-20 15:44:00,
2013-01-20 09:49:00,7.6,-1.5,30.22,WNW,293,4.0,8.5,66,0.00,,,0.00,WUHU216HW,2013-01-20 15:49:00,
2013-01-20 09:54:00,7.2,-2.1,30.22,NNW,338,2.9,8.5,65,0.00,,,0.00,WUHU216HW,2013-01-20 15:54:00,
2013-01-20 09:59:00,7.6,-1.2,30.23,WSW,248,3.4,5.4,67,0.00,,,0.00,WUHU216HW,2013-01-20 15:59:00,
2013-01-20 10:04:00,8.3,-0.8,30.23,North,0,4.5,8.9,66,0.00,,,0.00,WUHU216HW,2013-01-20 16:04:00,
2013-01-20 10:09:00,8.3,-1.2,30.23,WSW,248,6.9,8.9,65,0.00,,,0.00,WUHU216HW,2013-01-20 16:09:00,
2013-01-20 10:14:00,7.7,-1.6,30.23,NW,315,5.6,6.9,65,0.00,,,0.00,WUHU216HW,2013-01-20 16:14:00,
2013-01-20 10:19:00,7.7,-1.6,30.23,WNW,293,3.4,6.3,65,0.00,,,0.00,WUHU216HW,2013-01-20 16:19:00,
2013-01-20 10:24:00,7.9,-0.8,30.23,WSW,248,6.9,6.9,67,0.00,,,0.00,WUHU216HW,2013-01-20 16:24:00,
2013-01-20 10:29:00,8.3,-0.8,30.23,WNW,293,8.3,8.3,66,0.00,,,0.00,WUHU216HW,2013-01-20 16:29:00,
2013-01-20 10:34:00,8.3,-1.2,30.23,NNW,338,6.0,8.3,65,0.00,,,0.00,WUHU216HW,2013-01-20 16:34:00,
2013-01-20 10:39:00,8.5,-1.0,30.23,North,0,6.5,8.1,65,0.00,,,0.00,WUHU216HW,2013-01-20 16:39:00,
2013-01-20 10:44:00,8.8,-0.6,30.23,NW,315,5.4,6.9,65,0.00,,,0.00,WUHU216HW,2013-01-20 16:44:00,
2013-01-20 10:49:00,9.0,-0.4,30.24,WNW,293,3.8,8.3,65,0.00,,,0.00,WUHU216HW,2013-01-20 16:49:00,
2013-01-20 10:54:00,9.2,-0.6,30.24,WSW,248,3.4,8.7,64,0.00,,,0.00,WUHU216HW,2013-01-20 16:54:00,
2013-01-20 10:59:00,9.7,-0.1,30.24,NW,315,3.6,8.7,64,0.00,,,0.00,WUHU216HW,2013-01-20 16:59:00,
2013-01-20 11:04:00,9.7,-0.1,30.23,WSW,248,5.4,9.2,64,0.00,,,0.00,WUHU216HW,2013-01-20 17:04:00,
2013-01-20 11:09:00,10.1,-0.1,30.23,West,270,11.0,11.0,63,0.00,,,0.00,WUHU216HW,2013-01-20 17:09:00,
2013-01-20 11:14:00,9.9,-0.3,30.23,NW,315,6.3,11.0,63,0.00,,,0.00,WUHU216HW,2013-01-20 17:14:00,
2013-01-20 11:19:00,10.1,0.3,30.23,WNW,293,4.3,11.0,64,0.00,,,0.00,WUHU216HW,2013-01-20 17:19:00,
2013-01-20 11:24:00,10.3,0.4,30.22,WSW,248,7.6,7.6,64,0.00,,,0.00,WUHU216HW,2013-01-20 17:24:00,
2013-01-20 11:29:00,10.6,0.5,30.22,NW,315,4.9,7.6,63,0.00,,,0.00,WUHU216HW,2013-01-20 17:29:00,
2013-01-20 11:34:00,10.4,0.5,30.22,WNW,293,7.8,7.8,64,0.00,,,0.00,WUHU216HW,2013-01-20 17:34:00,
2013-01-20 11:39:00,10.4,0.3,30.22,WNW,293,1.8,8.7,63,0.00,,,0.00,WUHU216HW,2013-01-20 17:39:00,
2013-01-20 11:44:00,10.3,-0.5,30.22,West,270,6.7,9.8,61,0.00,,,0.00,WUHU216HW,2013-01-20 17:44:00,
2013-01-20 11:49:00,9.9,-0.6,30.22,North,0,5.6,9.8,62,0.00,,,0.00,WUHU216HW,2013-01-20 17:49:00,
2013-01-20 11:54:00,10.3,0.1,30.22,West,270,3.8,6.9,63,0.00,,,0.00,WUHU216HW,2013-01-20 17:54:00,
2013-01-20 11:59:00,10.1,-0.7,30.22,NNW,338,4.3,6.9,61,0.00,,,0.00,WUHU216HW,2013-01-20 17:59:00,
2013-01-20 12:04:00,10.8,0.6,30.22,West,270,6.3,6.9,63,0.00,,,0.00,WUHU216HW,2013-01-20 18:04:00,
2013-01-20 12:09:00,11.2,0.3,30.22,NNW,338,5.4,9.2,61,0.00,,,0.00,WUHU216HW,2013-01-20 18:09:00,
2013-01-20 12:14:00,11.2,0.3,30.22,NW,315,6.0,9.2,61,0.00,,,0.00,WUHU216HW,2013-01-20 18:14:00,
2013-01-20 12:19:00,10.6,-0.5,30.21,NW,315,5.6,8.3,60,0.00,,,0.00,WUHU216HW,2013-01-20 18:19:00,
2013-01-20 12:24:00,10.8,-0.3,30.21,West,270,2.5,8.9,60,0.00,,,0.00,WUHU216HW,2013-01-20 18:24:00,
2013-01-20 12:29:00,10.6,-0.5,30.21,SW,225,6.9,8.9,60,0.00,,,0.00,WUHU216HW,2013-01-20 18:29:00,
2013-01-20 12:34:00,11.7,0.5,30.21,NNW,338,6.0,8.5,60,0.00,,,0.00,WUHU216HW,2013-01-20 18:34:00,
2013-01-20 12:39:00,11.3,-0.3,30.21,WSW,248,4.5,9.2,59,0.00,,,0.00,WUHU216HW,2013-01-20 18:39:00,
2013-01-20 12:44:00,10.8,-0.3,30.21,NW,315,4.9,9.2,60,0.00,,,0.00,WUHU216HW,2013-01-20 18:44:00,
2013-01-20 12:49:00,11.3,-0.3,30.20,NW,315,1.8,8.5,59,0.00,,,0.00,WUHU216HW,2013-01-20 18:49:00,
2013-01-20 12:54:00,12.1,0.7,30.19,NW,315,8.5,8.5,60,0.00,,,0.00,WUHU216HW,2013-01-20 18:54:00,
2013-01-20 12:59:00,12.2,0.6,30.19,NNW,338,1.1,9.6,59,0.00,,,0.00,WUHU216HW,2013-01-20 18:59:00,
2013-01-20 13:04:00,11.9,0.2,30.19,SW,225,4.5,9.6,59,0.00,,,0.00,WUHU216HW,2013-01-20 19:04:00,
2013-01-20 13:09:00,12.1,0.4,30.19,NW,315,5.6,7.4,59,0.00,,,0.00,WUHU216HW,2013-01-20 19:09:00,
2013-01-20 13:14:00,11.9,-0.2,30.19,NW,315,6.3,10.3,58,0.00,,,0.00,WUHU216HW,2013-01-20 19:14:00,
2013-01-20 13:19:00,11.7,-0.4,30.19,North,0,5.4,10.3,58,0.00,,,0.00,WUHU216HW,2013-01-20 19:19:00,
2013-01-20 13:24:00,11.5,-0.5,30.19,NW,315,6.0,6.9,58,0.00,,,0.00,WUHU216HW,2013-01-20 19:24:00,
2013-01-20 13:29:00,11.3,-0.6,30.19,NNW,338,5.4,6.9,58,0.00,,,0.00,WUHU216HW,2013-01-20 19:29:00,
2013-01-20 13:34:00,11.3,-0.3,30.19,WNW,293,4.3,7.8,59,0.00,,,0.00,WUHU216HW,2013-01-20 19:34:00,
2013-01-20 13:39:00,11.9,0.5,30.19,WSW,248,7.8,8.5,60,0.00,,,0.00,WUHU216HW,2013-01-20 19:39:00,
2013-01-20 13:44:00,11.9,0.5,30.19,West,270,4.5,8.5,60,0.00,,,0.00,WUHU216HW,2013-01-20 19:44:00,
2013-01-20 13:49:00,11.9,0.2,30.19,North,0,4.3,7.2,59,0.00,,,0.00,WUHU216HW,2013-01-20 19:49:00,
2013-01-20 13:54:00,11.9,0.2,30.19,NW,315,4.3,9.2,59,0.00,,,0.00,WUHU216HW,2013-01-20 19:54:00,
2013-01-20 13:59:00,11.9,0.5,30.19,WNW,293,6.5,9.2,60,0.00,,,0.00,WUHU216HW,2013-01-20 19:59:00,
2013-01-20 14:04:00,12.1,0.4,30.19,NNE,23,8.5,9.8,59,0.00,,,0.00,WUHU216HW,2013-01-20 20:04:00,
2013-01-20 14:09:00,11.9,-0.2,30.19,WNW,293,8.9,13.0,58,0.00,,,0.00,WUHU216HW,2013-01-20 20:09:00,
2013-01-20 14:14:00,11.7,-0.4,30.19,NNW,338,4.7,13.0,58,0.00,,,0.00,WUHU216HW,2013-01-20 20:14:00,
2013-01-20 14:19:00,11.9,-0.2,30.19,NNW,338,4.0,9.4,58,0.00,,,0.00,WUHU216HW,2013-01-20 20:19:00,
2013-01-20 14:24:00,12.1,0.0,30.19,NW,315,6.3,8.7,58,0.00,,,0.00,WUHU216HW,2013-01-20 20:24:00,
2013-01-20 14:29:00,12.2,-0.3,30.19,West,270,7.4,8.5,57,0.00,,,0.00,WUHU216HW,2013-01-20 20:29:00,
2013-01-20 14:34:00,12.1,-0.3,30.19,SW,225,3.4,8.5,57,0.00,,,0.00,WUHU216HW,2013-01-20 20:34:00,
2013-01-20 14:39:00,12.1,-0.3,30.19,WSW,248,8.5,8.5,57,0.00,,,0.00,WUHU216HW,2013-01-20 20:39:00,
2013-01-20 14:44:00,12.2,-0.3,30.19,WSW,248,9.4,9.4,57,0.00,,,0.00,WUHU216HW,2013-01-20 20:44:00,
2013-01-20 14:49:00,12.1,-0.3,30.19,WSW,248,7.6,9.4,57,0.00,,,0.00,WUHU216HW,2013-01-20 20:49:00,
2013-01-20 14:54:00,12.1,-0.3,30.19,West,270,4.0,9.4,57,0.00,,,0.00,WUHU216HW,2013-01-20 20:54:00,
2013-01-20 14:59:00,12.1,-0.8,30.19,NNW,338,2.7,8.5,56,0.00,,,0.00,WUHU216HW,2013-01-20 20:59:00,
2013-01-20 15:04:00,12.2,-0.6,30.19,WSW,248,4.7,6.7,56,0.00,,,0.00,WUHU216HW,2013-01-20 21:04:00,
2013-01-20 15:09:00,12.2,-1.0,30.19,West,270,4.0,6.7,55,0.00,,,0.00,WUHU216HW,2013-01-20 21:09:00,
2013-01-20 15:14:00,12.1,-0.8,30.19,WSW,248,4.3,7.2,56,0.00,,,0.00,WUHU216HW,2013-01-20 21:14:00,
2013-01-20 15:19:00,12.1,-0.8,30.19,West,270,4.5,7.4,56,0.00,,,0.00,WUHU216HW,2013-01-20 21:19:00,
2013-01-20 15:24:00,12.1,-0.8,30.19,WNW,293,8.7,8.7,56,0.00,,,0.00,WUHU216HW,2013-01-20 21:24:00,
2013-01-20 15:29:00,12.2,-0.6,30.19,SSW,203,4.5,8.7,56,0.00,,,0.00,WUHU216HW,2013-01-20 21:29:00,
2013-01-20 15:34:00,12.4,-0.1,30.19,NW,315,5.8,7.2,57,0.00,,,0.00,WUHU216HW,2013-01-20 21:34:00,
2013-01-20 15:39:00,12.4,-0.4,30.19,South,180,6.5,8.5,56,0.00,,,0.00,WUHU216HW,2013-01-20 21:39:00,
2013-01-20 15:44:00,12.4,-0.4,30.19,NW,315,6.5,8.5,56,0.00,,,0.00,WUHU216HW,2013-01-20 21:44:00,
2013-01-20 15:49:00,12.2,-1.0,30.19,West,270,8.5,8.5,55,0.00,,,0.00,WUHU216HW,2013-01-20 21:49:00,
2013-01-20 15:54:00,12.4,-0.8,30.19,WNW,293,4.0,9.2,55,0.00,,,0.00,WUHU216HW,2013-01-20 21:54:00,
2013-01-20 15:59:00,12.2,-1.3,30.19,NW,315,5.4,9.2,54,0.00,,,0.00,WUHU216HW,2013-01-20 21:59:00,
2013-01-20 16:04:00,12.1,-1.5,30.19,NW,315,7.4,7.8,54,0.00,,,0.00,WUHU216HW,2013-01-20 22:04:00,
2013-01-20 16:09:00,12.1,-1.5,30.19,NNW,338,9.2,9.2,54,0.00,,,0.00,WUHU216HW,2013-01-20 22:09:00,
2013-01-20 16:14:00,11.9,-1.7,30.19,NNW,338,6.9,9.2,54,0.00,,,0.00,WUHU216HW,2013-01-20 22:14:00,
2013-01-20 16:19:00,11.9,-1.7,30.18,West,270,3.1,6.9,54,0.00,,,0.00,WUHU216HW,2013-01-20 22:19:00,
2013-01-20 16:24:00,11.9,-1.7,30.18,North,0,3.6,6.7,54,0.00,,,0.00,WUHU216HW,2013-01-20 22:24:00,
2013-01-20 16:29:00,11.9,-1.7,30.19,NNW,338,5.6,5.6,54,0.00,,,0.00,WUHU216HW,2013-01-20 22:29:00,
2013-01-20 16:34:00,11.5,-2.0,30.18,WNW,293,4.7,8.7,54,0.00,,,0.00,WUHU216HW,2013-01-20 22:34:00,
2013-01-20 16:39:00,11.2,-2.3,30.18,SW,225,4.0,8.9,54,0.00,,,0.00,WUHU216HW,2013-01-20 22:39:00,
2013-01-20 16:44:00,11.2,-2.3,30.18,NW,315,7.6,8.9,54,0.00,,,0.00,WUHU216HW,2013-01-20 22:44:00,
2013-01-20 16:49:00,11.0,-2.5,30.18,West,270,4.5,7.6,54,0.00,,,0.00,WUHU216HW,2013-01-20 22:49:00,
2013-01-20 16:54:00,10.8,-2.7,30.18,NW,315,1.1,7.6,54,0.00,,,0.00,WUHU216HW,2013-01-20 22:54:00,
2013-01-20 16:59:00,10.6,-2.4,30.18,West,270,2.5,4.5,55,0.00,,,0.00,WUHU216HW,2013-01-20 22:59:00,
2013-01-20 17:04:00,10.4,-2.6,30.18,NW,315,2.0,4.3,55,0.00,,,0.00,WUHU216HW,2013-01-20 23:04:00,
2013-01-20 17:09:00,10.3,-2.4,30.18,SW,225,1.1,3.1,56,0.00,,,0.00,WUHU216HW,2013-01-20 23:09:00,
2013-01-20 17:14:00,9.9,-2.4,30.18,NW,315,1.3,2.5,57,0.00,,,0.00,WUHU216HW,2013-01-20 23:14:00,
2013-01-20 17:19:00,9.9,-2.4,30.18,West,270,1.1,1.8,57,0.00,,,0.00,WUHU216HW,2013-01-20 23:19:00,
2013-01-20 17:24:00,9.7,-2.6,30.18,WSW,248,1.8,2.5,57,0.00,,,0.00,WUHU216HW,2013-01-20 23:24:00,
2013-01-20 17:29:00,9.5,-2.3,30.18,SW,225,1.8,2.5,58,0.00,,,0.00,WUHU216HW,2013-01-20 23:29:00,
2013-01-20 17:34:00,9.2,-2.7,30.18,WNW,293,2.5,2.5,58,0.00,,,0.00,WUHU216HW,2013-01-20 23:34:00,
2013-01-20 17:39:00,9.0,-2.5,30.18,West,270,1.3,2.7,59,0.00,,,0.00,WUHU216HW,2013-01-20 23:39:00,
2013-01-20 17:44:00,9.0,-2.5,30.18,SW,225,0.2,2.7,59,0.00,,,0.00,WUHU216HW,2013-01-20 23:44:00,
2013-01-20 17:49:00,8.6,-2.5,30.18,West,270,0.7,2.0,60,0.00,,,0.00,WUHU216HW,2013-01-20 23:49:00,
2013-01-20 17:54:00,8.8,-2.3,30.18,WNW,293,1.3,2.0,60,0.00,,,0.00,WUHU216HW,2013-01-20 23:54:00,
2013-01-20 17:59:00,8.8,-2.0,30.18,WSW,248,1.8,1.8,61,0.00,,,0.00,WUHU216HW,2013-01-20 23:59:00,
2013-01-20 18:04:00,8.6,-2.1,30.18,WSW,248,1.1,2.2,61,0.00,,,0.00,WUHU216HW,2013-01-21 00:04:00,
2013-01-20 18:09:00,8.5,-2.3,30.18,West,270,2.5,2.5,61,0.00,,,0.00,WUHU216HW,2013-01-21 00:09:00,
2013-01-20 18:14:00,8.5,-2.3,30.18,WSW,248,1.6,2.5,61,0.00,,,0.00,WUHU216HW,2013-01-21 00:14:00,
2013-01-20 18:19:00,8.3,-2.1,30.18,WSW,248,1.1,2.0,62,0.00,,,0.00,WUHU216HW,2013-01-21 00:19:00,
2013-01-20 18:24:00,8.1,-2.7,30.18,SW,225,1.1,1.3,61,0.00,,,0.00,WUHU216HW,2013-01-21 00:24:00,
2013-01-20 18:29:00,8.1,-2.3,30.18,SSW,203,2.0,2.0,62,0.00,,,0.00,WUHU216HW,2013-01-21 00:29:00,
2013-01-20 18:34:00,8.1,-2.0,30.18,WSW,248,1.1,2.0,63,0.00,,,0.00,WUHU216HW,2013-01-21 00:34:00,
2013-01-20 18:39:00,8.1,-2.0,30.18,WSW,248,0.2,1.1,63,0.00,,,0.00,WUHU216HW,2013-01-21 00:39:00,
2013-01-20 18:44:00,7.9,-2.1,30.18,SW,225,1.6,1.6,63,0.00,,,0.00,WUHU216HW,2013-01-21 00:44:00,
2013-01-20 18:49:00,7.7,-2.0,30.18,SW,225,1.3,1.8,64,0.00,,,0.00,WUHU216HW,2013-01-21 00:49:00,
2013-01-20 18:54:00,7.6,-2.1,30.19,WSW,248,1.1,1.8,64,0.00,,,0.00,WUHU216HW,2013-01-21 00:54:00,
2013-01-20 18:59:00,7.4,-2.3,30.18,WSW,248,1.1,1.8,64,0.00,,,0.00,WUHU216HW,2013-01-21 00:59:00,
2013-01-20 19:04:00,7.4,-2.0,30.18,WSW,248,1.3,1.6,65,0.00,,,0.00,WUHU216HW,2013-01-21 01:04:00,
2013-01-20 19:09:00,7.6,-1.8,30.18,WSW,248,1.3,2.2,65,0.00,,,0.00,WUHU216HW,2013-01-21 01:09:00,
2013-01-20 19:14:00,7.6,-1.5,30.17,NW,315,0.4,2.0,66,0.00,,,0.00,WUHU216HW,2013-01-21 01:14:00,
2013-01-20 19:19:00,7.7,-1.3,30.17,WNW,293,0.4,2.0,66,0.00,,,0.00,WUHU216HW,2013-01-21 01:19:00,
2013-01-20 19:24:00,7.6,-1.5,30.17,NW,315,1.1,1.1,66,0.00,,,0.00,WUHU216HW,2013-01-21 01:24:00,
2013-01-20 19:29:00,7.6,-1.5,30.17,WNW,293,0.9,1.8,66,0.00,,,0.00,WUHU216HW,2013-01-21 01:29:00,
2013-01-20 19:34:00,7.6,-1.5,30.17,WNW,293,2.0,2.0,66,0.00,,,0.00,WUHU216HW,2013-01-21 01:34:00,
2013-01-20 19:39:00,7.4,-1.7,30.17,West,270,2.0,2.0,66,0.00,,,0.00,WUHU216HW,2013-01-21 01:39:00,
2013-01-20 19:44:00,7.2,-1.9,30.17,WSW,248,1.1,2.0,66,0.00,,,0.00,WUHU216HW,2013-01-21 01:44:00,
2013-01-20 19:49:00,7.0,-2.0,30.17,WSW,248,1.1,1.8,66,0.00,,,0.00,WUHU216HW,2013-01-21 01:49:00,
2013-01-20 19:55:00,6.8,-2.1,30.16,WSW,248,0.7,1.8,66,0.00,,,0.00,WUHU216HW,2013-01-21 01:55:00,
2013-01-20 20:00:00,6.8,-2.1,30.16,WNW,293,0.9,1.8,66,0.00,,,0.00,WUHU216HW,2013-01-21 02:00:00,
2013-01-20 20:05:00,6.7,-2.3,30.16,NW,315,0.9,1.8,66,0.00,,,0.00,WUHU216HW,2013-01-21 02:05:00,
2013-01-20 20:10:00,6.7,-2.1,30.15,WNW,293,1.3,1.8,67,0.00,,,0.00,WUHU216HW,2013-01-21 02:10:00,
2013-01-20 20:15:00,6.8,-2.1,30.16,West,270,2.9,2.9,66,0.00,,,0.00,WUHU216HW,2013-01-21 02:15:00,
2013-01-20 20:20:00,6.8,-2.1,30.16,West,270,1.1,2.9,66,0.00,,,0.00,WUHU216HW,2013-01-21 02:20:00,
2013-01-20 20:25:00,6.7,-2.1,30.16,WSW,248,1.1,2.2,67,0.00,,,0.00,WUHU216HW,2013-01-21 02:25:00,
2013-01-20 20:30:00,6.7,-2.1,30.16,West,270,0.7,2.2,67,0.00,,,0.00,WUHU216HW,2013-01-21 02:30:00,
2013-01-20 20:35:00,6.7,-2.1,30.15,WSW,248,1.1,1.8,67,0.00,,,0.00,WUHU216HW,2013-01-21 02:35:00,
2013-01-20 20:40:00,6.7,-2.1,30.16,West,270,1.8,1.8,67,0.00,,,0.00,WUHU216HW,2013-01-21 02:40:00,
2013-01-20 20:45:00,6.7,-2.1,30.15,WSW,248,0.4,1.8,67,0.00,,,0.00,WUHU216HW,2013-01-21 02:45:00,
2013-01-20 20:50:00,6.5,-2.2,30.16,SW,225,1.1,1.6,67,0.00,,,0.00,WUHU216HW,2013-01-21 02:50:00,
2013-01-20 20:55:00,6.5,-2.2,30.15,WSW,248,1.1,1.6,67,0.00,,,0.00,WUHU216HW,2013-01-21 02:55:00,
2013-01-20 21:00:00,6.1,-2.6,30.15,SW,225,0.9,1.6,67,0.00,,,0.00,WUHU216HW,2013-01-21 03:00:00,
2013-01-20 21:05:00,6.1,-2.2,30.15,West,270,2.5,2.5,68,0.00,,,0.00,WUHU216HW,2013-01-21 03:05:00,
2013-01-20 21:10:00,6.1,-2.2,30.14,West,270,2.0,2.5,68,0.00,,,0.00,WUHU216HW,2013-01-21 03:10:00,
2013-01-20 21:15:00,6.3,-2.1,30.15,WSW,248,1.8,2.5,68,0.00,,,0.00,WUHU216HW,2013-01-21 03:15:00,
2013-01-20 21:20:00,6.3,-2.1,30.14,SW,225,0.7,2.5,68,0.00,,,0.00,WUHU216HW,2013-01-21 03:20:00,
2013-01-20 21:25:00,6.3,-2.1,30.15,WSW,248,0.9,2.5,68,0.00,,,0.00,WUHU216HW,2013-01-21 03:25:00,
2013-01-20 21:30:00,6.1,-2.2,30.14,WSW,248,1.8,2.5,68,0.00,,,0.00,WUHU216HW,2013-01-21 03:30:00,
2013-01-20 21:35:00,5.9,-2.8,30.15,WSW,248,1.8,1.8,67,0.00,,,0.00,WUHU216HW,2013-01-21 03:35:00,
2013-01-20 21:40:00,5.9,-2.8,30.14,SW,225,1.8,2.2,67,0.00,,,0.00,WUHU216HW,2013-01-21 03:40:00,
2013-01-20 21:45:00,5.9,-2.4,30.14,WSW,248,1.6,2.2,68,0.00,,,0.00,WUHU216HW,2013-01-21 03:45:00,
2013-01-20 21:50:00,6.1,-2.2,30.14,West,270,1.8,2.0,68,0.00,,,0.00,WUHU216HW,2013-01-21 03:50:00,
2013-01-20 21:55:00,6.1,-2.2,30.14,WSW,248,0.9,2.2,68,0.00,,,0.00,WUHU216HW,2013-01-21 03:55:00,
2013-01-20 22:00:00,6.1,-2.2,30.14,WSW,248,1.1,2.2,68,0.00,,,0.00,WUHU216HW,2013-01-21 04:00:00,
2013-01-20 22:05:00,6.1,-2.2,30.14,West,270,2.0,2.2,68,0.00,,,0.00,WUHU216HW,2013-01-21 04:05:00,
2013-01-20 22:10:00,6.1,-2.2,30.14,NW,315,1.6,2.9,68,0.00,,,0.00,WUHU216HW,2013-01-21 04:10:00,
2013-01-20 22:15:00,6.1,-2.2,30.14,NW,315,2.2,3.4,68,0.00,,,0.00,WUHU216HW,2013-01-21 04:15:00,
2013-01-20 22:20:00,6.3,-2.4,30.14,West,270,1.1,3.6,67,0.00,,,0.00,WUHU216HW,2013-01-21 04:20:00,
2013-01-20 22:25:00,6.7,-2.3,30.13,NW,315,1.1,3.6,66,0.00,,,0.00,WUHU216HW,2013-01-21 04:25:00,
2013-01-20 22:30:00,6.5,-2.5,30.13,WSW,248,0.7,2.5,66,0.00,,,0.00,WUHU216HW,2013-01-21 04:30:00,
2013-01-20 22:35:00,6.3,-2.7,30.13,NW,315,0.4,1.8,66,0.00,,,0.00,WUHU216HW,2013-01-21 04:35:00,
2013-01-20 22:40:00,6.1,-2.9,30.13,West,270,1.6,2.2,66,0.00,,,0.00,WUHU216HW,2013-01-21 04:40:00,
2013-01-20 22:45:00,5.9,-3.0,30.13,NW,315,2.0,2.2,66,0.00,,,0.00,WUHU216HW,2013-01-21 04:45:00,
2013-01-20 22:50:00,5.8,-3.0,30.13,West,270,2.5,2.5,67,0.00,,,0.00,WUHU216HW,2013-01-21 04:50:00,
2013-01-20 22:55:00,5.6,-3.1,30.13,West,270,1.1,2.5,67,0.00,,,0.00,WUHU216HW,2013-01-21 04:55:00,
2013-01-20 23:00:00,5.4,-3.6,30.13,West,270,0.9,1.6,66,0.00,,,0.00,WUHU216HW,2013-01-21 05:00:00,
2013-01-20 23:01:00,5.4,-3.6,30.13,West,270,0.9,1.6,66,0.00,,,0.00,WUHU216HW,2013-01-21 05:01:00,
2013-01-20 23:02:00,5.4,-3.6,30.13,WSW,248,1.8,1.8,66,0.00,,,0.00,WUHU216HW,2013-01-21 05:02:00,
2013-01-20 23:03:00,5.4,-3.3,30.13,WNW,293,0.4,1.8,67,0.00,,,0.00,WUHU216HW,2013-01-21 05:03:00,
2013-01-20 23:08:00,5.2,-3.5,30.12,WSW,248,0.4,1.8,67,0.00,,,0.00,WUHU216HW,2013-01-21 05:08:00,
2013-01-20 23:13:00,5.2,-3.5,30.12,WNW,293,0.4,1.8,67,0.00,,,0.00,WUHU216HW,2013-01-21 05:13:00,
2013-01-20 23:18:00,5.4,-3.3,30.12,WNW,293,2.2,2.5,67,0.00,,,0.00,WUHU216HW,2013-01-21 05:18:00,
2013-01-20 23:23:00,5.6,-3.1,30.12,WNW,293,2.0,2.5,67,0.00,,,0.00,WUHU216HW,2013-01-21 05:23:00,
2013-01-20 23:28:00,5.9,-2.8,30.12,NW,315,1.8,3.4,67,0.00,,,0.00,WUHU216HW,2013-01-21 05:28:00,
2013-01-20 23:33:00,6.1,-2.2,30.12,West,270,0.4,3.4,68,0.00,,,0.00,WUHU216HW,2013-01-21 05:33:00,
2013-01-20 23:38:00,6.1,-2.2,30.12,WNW,293,1.1,3.4,68,0.00,,,0.00,WUHU216HW,2013-01-21 05:38:00,
2013-01-20 23:43:00,6.5,-2.2,30.12,NW,315,3.4,3.4,67,0.00,,,0.00,WUHU216HW,2013-01-21 05:43:00,
2013-01-20 23:48:00,6.7,-2.1,30.12,WSW,248,2.2,4.0,67,0.00,,,0.00,WUHU216HW,2013-01-21 05:48:00,
2013-01-20 23:53:00,6.7,-2.1,30.11,NW,315,3.6,4.0,67,0.00,,,0.00,WUHU216HW,2013-01-21 05:53:00,
2013-01-20 23:58:00,6.8,-1.9,30.11,NW,315,1.3,3.6,67,0.00,,,0.00,WUHU216HW,2013-01-21 05:58:00,